Regional Weather Roundup
Issued by NWS

Home | Current Version | Previous Version | Text Only | Print | Product List | Glossary Off
Versions: 1 2 3 4 5 6 7 8 9 10 11 12 13 14 15 16 17 18 19 20 21 22 23 24 25 26 27 28 29 30 31 32 33 34 35 36 37 38 39 40 41 42 43 44 45 46 47 48 49 50

000
ASUS45 KBOU 022210
RWRCO

WEATHER ROUNDUP FOR COLORADO
NATIONAL WEATHER SERVICE DENVER/BOULDER CO
400 PM MDT THU JUL 02 2015

NOTE: "FAIR" INDICATES FEW OR NO CLOUDS BELOW 12000 FEET WITH NO
SIGNIFICANT WEATHER AND/OR OBSTRUCTIONS TO VISIBILITY.

COZ001>005-013-030-031-022300-
...NORTHWEST COLORADO...

CITY           SKY/WX    TMP DP  RH WIND       PRES   REMARKS
CRAIG          PTSUNNY   91  38  15 N7G16     30.15F
HAYDEN         MOSUNNY   84  36  17 N10G17    30.18F
MEEKER         MOSUNNY   87  42  20 E10G18    30.16F
MOUNT WERNER   NOT AVBL
STEAMBOAT SPGS MOSUNNY   85  37  18 W8        30.20F
WALDEN         MOSUNNY   73  32  21 NW12G20   30.32S
$$

COZ006>008-011-022300-
...WEST CENTRAL VALLEYS...

CITY           SKY/WX    TMP DP  RH WIND       PRES   REMARKS
GRAND JUNCTION PTSUNNY   94  48  20 NE9G23    30.01F
MONTROSE       CLOUDY    88  48  25 W9        30.11F
EAGLE          PTSUNNY   84  45  24 CALM      30.18F
RIFLE          MOSUNNY   95  41  15 N14       30.06F
DELTA          CLOUDY    96  48  19 SE16      30.04F
NUCLA          CLOUDY    88  46  23 NW8       30.15F
$$

COZ017>023-064>068-022300-
...SOUTHWEST COLORADO...

CITY           SKY/WX    TMP DP  RH WIND       PRES   REMARKS
DURANGO        PTSUNNY   80  53  39 N8        30.17F
CORTEZ         SUNNY     92  51  24 W16G23    30.11F
PAGOSA SPRINGS PTSUNNY   72  48  41 W3        30.27F THUNDER
TELLURIDE      PTSUNNY   74  51  44 N3        30.40S
WOLF CREEK PAS NOT AVBL
$$

COZ009-010-012-014-032>034-037-058>063-022300-
...CENTRAL COLORADO...

CITY           SKY/WX    TMP DP  RH WIND       PRES   REMARKS
ASPEN          PTSUNNY   83  45  26 N15G23    30.25F
BUENA VISTA    TSTM      61  54  78 E10G26    30.38R
COPPER MTN     PTSUNNY   61  41  48 W15G22    30.64F
BERTHOUD PASS  CLOUDY    43  34  70 MISG      30.69F HAZE
COTTONWOOD PAS NOT AVBL
GUNNISON       CLOUDY    75  46  35 E15       30.29R
KREMMLING      MOSUNNY   82  28  14 NW13G20   30.26F
LEADVILLE      PTSUNNY   65  41  41 N12G20    30.45R
MONARCH PASS   FOG       50  46  87 NE21      30.71F VSB<1/4
SALIDA         CLOUDY    64  55  73 E14G21    30.38F
SUNLIGHT       MOSUNNY   72  41  33 NW5       30.56F
WILKERSON PASS CLOUDY    50  43  76 E12G17    30.63S
$$

COZ069>075-022300-
...SAN LUIS VALLEY/SANGRE DE CRISTO MOUNTAINS...

CITY           SKY/WX    TMP DP  RH WIND       PRES   REMARKS
ALAMOSA        PTSUNNY   78  51  38 CALM      30.25S
LA VETA PASS   PTSUNNY   57  50  77 MISG      30.52S
SAGUACHE       CLOUDY    64  55  72 CALM      30.31R
$$

COZ035-036-038>040-022300-
...NORTHERN COLORADO FRONT RANGE...

CITY           SKY/WX    TMP DP  RH WIND       PRES   REMARKS
DENVER INTL AP MOSUNNY   83  49  30 E6        30.17F
DMNS CITY PARK   N/A     84  45  25 N2        30.17F
AURORA         MOSUNNY   79  50  36 E3        30.20F
FRONT RANGE AP PTSUNNY   82  50  32 CALM      30.19F
ERIE MUNI ARPT MOSUNNY   85  45  24 NE7       30.15F
BOULDER MUN AP PTSUNNY   81  48  32 N3        30.17S
CENTENNIAL     MOSUNNY   78  50  37 VRB3      30.21F
BROOMFIELD     PTSUNNY   81  50  34 SW9       30.21S
FORT COLLINS   MOSUNNY   84  55  37 SE9       30.13F
LONGMONT       MOSUNNY   82  49  31 CALM      30.17F
$$

COZ041-046-047-076>085-087-088-022300-
...PIKES PEAK/PALMER DIVIDE AND SOUTHERN FOOTHILLS...

CITY           SKY/WX    TMP DP  RH WIND       PRES   REMARKS
COLO. SPRINGS  PTSUNNY   73  57  57 S6        30.26F
A. F. ACADEMY  PTSUNNY   73  53  48 W8        30.26F
ELLICOTT       PTSUNNY  N/A N/A N/A CALM      30.24F
FALCON         PTSUNNY   77  51  38 NE6       30.31S
FORT CARSON    NOT AVBL
LIMON          SUNNY     79  53  40 VRB5      30.19F
MONUMENT HILL  PTSUNNY   72  50  46 CALM      30.31S
TRINIDAD       PTSUNNY   77  57  50 NE9       30.22S
$$

COZ042>045-048>051-090-091-022300-
...NORTHEAST COLORADO...

CITY           SKY/WX    TMP DP  RH WIND       PRES   REMARKS
GREELEY ARPT   SUNNY     82  48  30 SE6       30.14F
AKRON          MOSUNNY   83  57  41 NE8       30.13F
BURLINGTON     SUNNY     84  53  34 NE14      30.11S
WRAY           MOSUNNY   88  54  30 N12G17    30.08S
STERLING       SUNNY     82  55  39 NE12G20     N/A
HOLYOKE        MOSUNNY   88  54  31 N16G23    30.09S
FORT MORGAN    MOSUNNY   84  52  33 E12       30.12F
$$

COZ086-089-092>099-022300-
...SOUTHEAST COLORADO...

CITY           SKY/WX    TMP DP  RH WIND       PRES   REMARKS
PUEBLO         CLOUDY    80  57  45 SW9       30.16S
LA JUNTA       PTSUNNY   84  57  39 VRB5      30.11F
LAMAR          MOSUNNY   88  56  33 N13       30.05F
SPRINGFIELD      N/A     85  58  39 NW12      30.09F
$$



USA.gov is the U.S. government's official web portal to all federal, state and local government web resources and services.